TimePDT,TemperatureF,Dew PointF,Humidity,Sea Level PressureIn,VisibilityMPH,Wind Direction,Wind SpeedMPH,Gust SpeedMPH,PrecipitationIn,Events,Conditions,WindDirDegrees,DateUTC
12:10 AM,50.0,35.6,58,29.99,10.0,Calm,Calm,-,N/A,,Clear,0,2012-10-11 07:10:00
12:30 AM,48.2,35.6,62,29.99,10.0,Calm,Calm,-,N/A,,Clear,0,2012-10-11 07:30:00
12:50 AM,48.2,35.6,62,29.99,10.0,West,3.5,-,N/A,,Clear,270,2012-10-11 07:50:00
1:10 AM,46.4,35.6,66,29.99,10.0,West,3.5,-,N/A,,Clear,280,2012-10-11 08:10:00
1:30 AM,46.4,35.6,66,29.99,10.0,Calm,Calm,-,N/A,,Clear,0,2012-10-11 08:30:00
1:50 AM,46.4,35.6,66,29.99,10.0,Calm,Calm,-,N/A,,Clear,0,2012-10-11 08:50:00
2:10 AM,46.4,35.6,66,29.99,10.0,Calm,Calm,-,N/A,,Clear,0,2012-10-11 09:10:00
2:30 AM,46.4,35.6,66,30.00,10.0,WNW,3.5,-,N/A,,Clear,290,2012-10-11 09:30:00
3:10 AM,44.6,35.6,71,30.00,10.0,West,4.6,-,N/A,,Clear,270,2012-10-11 10:10:00
3:30 AM,44.6,35.6,71,30.00,10.0,West,5.8,-,N/A,,Clear,280,2012-10-11 10:30:00
3:50 AM,44.6,35.6,71,30.00,10.0,WNW,3.5,-,N/A,,Clear,290,2012-10-11 10:50:00
4:10 AM,44.6,35.6,71,30.00,10.0,West,3.5,-,N/A,,Clear,270,2012-10-11 11:10:00
4:30 AM,44.6,35.6,71,30.00,10.0,Calm,Calm,-,N/A,,Clear,0,2012-10-11 11:30:00
5:30 AM,42.8,35.6,76,30.00,10.0,Calm,Calm,-,N/A,,Clear,0,2012-10-11 12:30:00
5:50 AM,41.0,35.6,81,30.00,10.0,West,3.5,-,N/A,,Clear,260,2012-10-11 12:50:00
6:10 AM,41.0,35.6,81,29.99,10.0,West,4.6,-,N/A,,Clear,280,2012-10-11 13:10:00
6:30 AM,41.0,35.6,81,29.99,10.0,Calm,Calm,-,N/A,,Clear,0,2012-10-11 13:30:00
6:50 AM,41.0,35.6,81,30.00,10.0,West,4.6,-,N/A,,Clear,280,2012-10-11 13:50:00
7:10 AM,41.0,35.6,81,29.99,10.0,West,3.5,-,N/A,,Clear,280,2012-10-11 14:10:00
7:30 AM,39.2,35.6,87,29.99,10.0,West,4.6,-,N/A,,Clear,270,2012-10-11 14:30:00
7:50 AM,41.0,35.6,81,29.99,10.0,Calm,Calm,-,N/A,,Clear,0,2012-10-11 14:50:00
8:10 AM,42.8,35.6,76,29.98,10.0,Calm,Calm,-,N/A,,Clear,0,2012-10-11 15:10:00
8:30 AM,46.4,37.4,71,29.98,10.0,Calm,Calm,-,N/A,,Clear,0,2012-10-11 15:30:00
8:50 AM,50.0,37.4,62,29.98,10.0,Calm,Calm,-,N/A,,Clear,0,2012-10-11 15:50:00
9:10 AM,50.0,39.2,66,29.97,10.0,Calm,Calm,-,N/A,,Clear,0,2012-10-11 16:10:00
9:30 AM,51.8,39.2,62,29.97,10.0,Calm,Calm,-,N/A,,Clear,0,2012-10-11 16:30:00
9:50 AM,53.6,39.2,58,29.96,10.0,Calm,Calm,-,N/A,,Clear,0,2012-10-11 16:50:00
10:10 AM,55.4,35.6,47,29.95,10.0,Calm,Calm,-,N/A,,Clear,0,2012-10-11 17:10:00
10:30 AM,55.4,37.4,51,29.94,10.0,ENE,3.5,-,N/A,,Clear,60,2012-10-11 17:30:00
11:10 AM,59.0,35.6,42,29.94,10.0,Calm,Calm,-,N/A,,Clear,0,2012-10-11 18:10:00
11:50 AM,62.6,39.2,42,29.93,10.0,East,3.5,-,N/A,,Clear,100,2012-10-11 18:50:00
12:30 PM,66.2,39.2,37,29.92,10.0,SE,3.5,-,N/A,,Clear,130,2012-10-11 19:30:00
12:50 PM,68.0,39.2,35,29.91,10.0,SE,3.5,-,N/A,,Clear,140,2012-10-11 19:50:00
1:10 PM,69.8,39.2,33,29.90,10.0,East,3.5,-,N/A,,Clear,90,2012-10-11 20:10:00
1:30 PM,71.6,39.2,31,29.89,10.0,Calm,Calm,-,N/A,,Clear,0,2012-10-11 20:30:00
1:50 PM,73.4,41.0,31,29.88,10.0,SSE,4.6,-,N/A,,Clear,150,2012-10-11 20:50:00
2:10 PM,73.4,41.0,31,29.87,10.0,SSE,3.5,-,N/A,,Clear,160,2012-10-11 21:10:00
2:30 PM,75.2,39.2,27,29.85,10.0,SE,3.5,-,N/A,,Clear,140,2012-10-11 21:30:00
2:50 PM,75.2,39.2,27,29.84,10.0,Calm,Calm,-,N/A,,Clear,0,2012-10-11 21:50:00
3:30 PM,77.0,39.2,26,29.83,10.0,Calm,Calm,-,N/A,,Clear,0,2012-10-11 22:30:00
4:10 PM,78.8,39.2,24,29.82,10.0,SE,3.5,-,N/A,,Clear,140,2012-10-11 23:10:00
4:30 PM,77.0,39.2,26,29.81,10.0,Calm,Calm,-,N/A,,Clear,0,2012-10-11 23:30:00
4:50 PM,77.0,39.2,26,29.81,10.0,Calm,Calm,-,N/A,,Clear,0,2012-10-11 23:50:00
5:10 PM,78.8,44.6,30,29.81,10.0,Calm,Calm,-,N/A,,Clear,0,2012-10-12 00:10:00
5:30 PM,75.2,44.6,34,29.80,10.0,Calm,Calm,-,N/A,,Clear,0,2012-10-12 00:30:00
6:10 PM,68.0,44.6,43,29.81,10.0,West,3.5,-,N/A,,Clear,270,2012-10-12 01:10:00
6:50 PM,64.4,41.0,42,29.83,10.0,SW,3.5,-,N/A,,Clear,220,2012-10-12 01:50:00
7:10 PM,64.4,41.0,42,29.85,10.0,East,3.5,-,N/A,,Clear,100,2012-10-12 02:10:00
7:50 PM,66.2,44.6,46,29.88,10.0,SSE,10.4,-,N/A,,Clear,160,2012-10-12 02:50:00
8:10 PM,64.4,48.2,56,29.89,10.0,SE,6.9,-,N/A,,Clear,140,2012-10-12 03:10:00
8:30 PM,62.6,48.2,59,29.91,10.0,SSE,4.6,-,N/A,,Clear,150,2012-10-12 03:30:00
9:10 PM,60.8,48.2,63,29.94,10.0,SSE,12.7,21.9,N/A,,Clear,160,2012-10-12 04:10:00
9:30 PM,59.0,48.2,67,29.95,10.0,SSE,11.5,16.1,N/A,,Clear,150,2012-10-12 04:30:00
10:10 PM,57.2,48.2,72,29.98,10.0,SSE,5.8,-,N/A,,Clear,150,2012-10-12 05:10:00
10:30 PM,57.2,46.4,67,29.99,10.0,SSW,3.5,-,N/A,,Clear,200,2012-10-12 05:30:00
10:50 PM,53.6,42.8,67,30.00,10.0,West,3.5,-,N/A,,Mostly Cloudy,270,2012-10-12 05:50:00
11:10 PM,53.6,42.8,67,30.01,10.0,Calm,Calm,-,N/A,,Mostly Cloudy,0,2012-10-12 06:10:00
11:30 PM,55.4,46.4,72,30.01,10.0,SE,4.6,-,N/A,,Mostly Cloudy,140,2012-10-12 06:30:00
11:50 PM,57.2,46.4,67,30.01,10.0,SSE,6.9,-,N/A,,Overcast,150,2012-10-12 06:50:00